Weather Roundup
Issued by NWS Chicago, IL

Home | Current Version | Previous Version | Text Only | Print | Product List | Glossary On
Versions: 1 2 3 4 5 6 7 8 9 10 11 12 13 14 15 16 17 18 19 20 21 22 23 24 25 26 27 28 29 30 31 32 33 34 35 36 37 38 39 40 41 42 43 44 45 46 47 48 49 50
000
NZUS59 KLOT 282300
HRRLOT

CHICAGO AREA WEATHER ROUNDUP
NATIONAL WEATHER SERVICE CHICAGO/ROMEOVILLE IL
500 PM CST FRI NOV 28 2014

NOTE: "FAIR" INDICATES FEW OR NO CLOUDS BELOW 12,000 FEET WITH NO
SIGNIFICANT WEATHER AND/OR OBSTRUCTIONS TO VISIBILITY.

* THESE STATIONS ARE NOT UNDER NWS QUALITY CONTROL. THEY ALSO MAY NOT
  REPORT WEATHER SUCH AS PRECIPITATION OR FOG.

ILZ005-006-012>014-019>023-290000-
NORTHEAST ILLINOIS

CITY           SKY/WX    TMP DP  RH WIND       PRES   REMARKS
OHARE          CLOUDY    31  25  78 S13       29.97F WCI  21
MIDWAY         CLOUDY    34  24  67 S13G22    29.99F WCI  25
AURORA         CLOUDY    32  26  78 SE8       29.97S WCI  25
WAUKEGAN       CLOUDY    30  22  72 S7        29.98R WCI  23
DUPAGE AIRPORT CLOUDY    31  26  82 S13       29.97S WCI  21
WHEELING       CLOUDY    31  24  75 S10       30.01R WCI  22
NORTHERLY IS     N/A     32  23  70 S13         N/A  WCI  22
$$

WIZ051-052-058>065-066-070>072-290000-
SOUTHEAST WISCONSIN

CITY           SKY/WX    TMP DP  RH WIND       PRES   REMARKS
MILWAUKEE      MOCLDY    29  19  66 S7        29.97F WCI  22
KENOSHA*       CLOUDY    30  22  72 S7        29.97F WCI  23
RACINE*        CLOUDY    30  21  69 S8        29.99F WCI  22
WAUKESHA       CLOUDY    25  16  68 SE12      29.98S WCI  14
$$

INZ001>003-010>013-019-020-290000-
NORTHWEST INDIANA

CITY           SKY/WX    TMP DP  RH WIND       PRES   REMARKS
GARY*          MOCLDY    32  23  69 S16       30.03R WCI  21
MICHIGAN CITY* NOT AVBL
RENSSELAER*    NOT AVBL
VALPARAISO     CLOUDY    30  21  69 S9        30.04R WCI  22
$$

LMZ740>746-290000-
SOUTHERN LAKE MICHIGAN

STATION/POSITION TIME  SKY/WX   TEMP WIND        PRES    VSBY
                                AIR  DIR/SP/G
                 (UTC)          (F)  (DEG/KT/KT) (MB)    (MI)
HARRISON CRIB    2200            31  170/ 20/ 24   N/A
BURNHAM HARBOR   2300            32  160/ 13/ 18   N/A
CALUMET HARBOR   2200            32  160/  9/ 16 1015.1R
BURNS HARBOR     NOT AVBL
MICHIGAN CITY    2200            30  140/ 15/ 19   N/A
$$

ABBREVIATIONS USED IN REMARKS
   TC - TEMPERATURE IN CELSIUS
  WCI - WIND CHILL INDEX
   HX - HEAT INDEX
  VSB - VISIBILITY
$$


USA.gov is the U.S. government's official web portal to all federal, state and local government web resources and services.